Weather in Arhangelsk

Russia / Arkhangel'skaya Oblast'     64˚32′21″N   40˚31′00″E
temp.,
°C
wind,
m/s
gust,
m/s
humid.,
%
clouds,
%
prec.,
mm/h
press.,
hPa
HPBL,
m
30 november, mon
mon3000:00−8˚s289385 0.0 1035311
03:00−8˚sse389488 0.0 1035297
06:00−5˚s3992100 0.1 1034526
09:00−2˚sse3993100 0.1 1033437
12:00−2˚sse41092100 0.1 1031615
15:00s4109099 0.2 1030599
18:00sse41093100 0.0 1028566
21:00+1˚sse41193100 0.1 1026703
1 december, tue
tue100:00s41191100 0.0 1025697
03:00−1˚s51188100 0.1 1024700
06:00−1˚s41086100 0.0 1023791
09:00s51193100 0.3 1022791
12:00ssw51085100 0.1 1021795
15:00ssw41087100 0.1 1021894
18:00−2˚sw3108567 0.0 1021490
21:00−3˚sw398950 0.0 1023565
2 december, wed
wed200:00−4˚ssw399129 0.0 1023377
03:00−2˚ssw398556 0.0 1025615
06:00−2˚ssw399492 0.3 1025473
09:00−3˚ssw279690 0.4 1027285
12:00−1˚ssw279592 0.3 1028344
15:00ssw389896 0.7 1029384
18:00ssw3796100 0.1 1030325
21:00ssw3893100 0.5 1031414
3 december, thu
thu300:00ssw4109096 0.0 1032455
03:00−1˚ssw399297 0.0 1032439
06:00−1˚ssw498799 0.0 1032622
09:00−2˚ssw399296 0.0 1032511
12:00−1˚ssw378899 0.0 1033613
15:00−2˚s3786100 0.0 1033587
18:00−5˚s389382 0.0 1032299
21:00−6˚s389243 0.0 1032308
4 december, fri
fri400:00−6˚sse389459 0.0 1032335
03:00−6˚s379078 0.1 1031444
06:00−5˚s3586100 0.1 1031512
09:00−8˚sse379190 0.1 1031296
12:00−7˚s378895 0.0 1031322
15:00−7˚s388898 0.0 1031358
18:00−7˚s379198 0.0 1031317
21:00−8˚s269387 0.0 1031266